Flag for Germany Weather past 2 weeks in Witten, North Rhine-Westphalia, Germany

Now
61 °F

Clear.


Feels Like: 61 °F
Forecast: 60 / 71 °F
Wind: 6 mph from South

Location: Dortmund / Wickede

Current Time: Sep 19, 2014 at 8:53:09 AM

Latest Report: Sep 19, 2014 at 7:50 AM


Visibility: 10 mi

Pressure: 29.86 "Hg

Humidity: 94%

Dew point: 59 °F

Location of WittenLocation

Historic Weather in Witten — Graph

°F

Witten temperature yesterday

Maximum temperature yesterday: 72 °F (at 10:20 AM)
Minimum temperature yesterday: 55 °F (at 5:50 AM)
Average temperature yesterday: 64 °F

Past Weeks' High & Low Weather Summary

 TemperatureHumidityPressure
High77 °F (Sep 6, 1:50 PM)94% (Sep 4, 7:20 AM)30.24 "Hg (Sep 4, 7:20 AM)
Low43 °F (Sep 12, 5:50 AM)39% (Sep 17, 3:20 PM)29.83 "Hg (Sep 19, 5:20 AM)
Average62 °F74%30.04 "Hg
* Reported Sep 4 7:20 AM — Sep 19 7:50 AM, Witten, Weather by CustomWeather, © 2014

Note: Actual official high and low records may vary slightly from our data, if they occured in-between our weather recording intervals... More about our weather records

Advertising

Witten weather history for previous 24 hours

 ConditionsComfort  
Time TempWeatherWind HumidityBarometerVisibility
7:50 AM
Sep 19
61 °FClear.6 mph94%29.86 "Hg10 mi
7:20 AM57 °FFog.2 mph94%29.83 "Hg6 mi
6:50 AM57 °FFog.2 mph88%29.83 "Hg6 mi
6:20 AM57 °FClear.2 mph94%29.83 "Hg10 mi
5:50 AM61 °FClear.3 mph88%29.83 "Hg10 mi
5:20 AM61 °FClear.10 mph88%29.83 "HgN/A
10:50 PM
Sep 18
63 °FPartly cloudy.10 mph88%29.86 "Hg5 mi
10:20 PM63 °FLight rain. Partly cloudy.16 mph88%29.86 "Hg4 mi
9:20 PM63 °FThundershowers. Passing clouds.9 mph88%29.89 "Hg4 mi
8:50 PM61 °FThundershowers. Passing clouds.10 mph94%29.86 "Hg4 mi
8:20 PM63 °FRain. Broken clouds.6 mph88%29.89 "Hg4 mi
7:50 PM64 °FLight rain. Partly sunny.10 mph83%29.86 "HgN/A
7:20 PM63 °FLight rain. Passing clouds.8 mph83%29.86 "HgN/A
6:50 PM64 °FLight rain. Passing clouds.8 mph83%29.86 "Hg4 mi
6:20 PM66 °FLight rain. Passing clouds.5 mph83%29.89 "Hg6 mi
5:50 PM68 °FSprinkles. Partly sunny.5 mph78%29.86 "HgN/A
5:20 PM68 °FPassing clouds.7 mph78%29.86 "HgN/A
4:50 PM68 °FSunny.7 mph78%29.86 "Hg10 mi
4:20 PM68 °FSunny.7 mph78%29.86 "Hg10 mi
3:50 PM66 °FSunny.7 mph83%29.86 "Hg10 mi
3:20 PM64 °FSprinkles. Scattered clouds.8 mph83%29.89 "HgN/A
2:50 PM66 °FDrizzle. Partly sunny.7 mph78%29.89 "Hg6 mi
2:20 PM66 °FClear.6 mph78%29.89 "Hg6 mi
1:50 PM70 °FPassing clouds.6 mph64%29.89 "HgN/A
1:20 PM70 °FClear.3 mph64%29.89 "Hg6 mi
12:50 PM70 °FPassing clouds.5 mph64%29.86 "HgN/A
12:20 PM72 °FPassing clouds.5 mph61%29.89 "HgN/A
11:50 AM70 °FPassing clouds.5 mph69%29.86 "HgN/A
11:20 AM68 °FSunny.3 mph69%29.86 "Hg10 mi
10:50 AM68 °FPassing clouds.5 mph69%29.86 "HgN/A
10:20 AM72 °FSunny.2 mph61%29.86 "Hg10 mi
9:50 AM66 °FPassing clouds.5 mph68%29.86 "HgN/A
9:20 AM64 °FSunny.2 mph73%29.86 "Hg10 mi
8:50 AM63 °FSunny.3 mph77%29.86 "Hg10 mi
8:20 AM59 °FSunny.2 mph82%29.86 "Hg10 mi
Weather by CustomWeather, © 2014

See weather overviewHow to use our weather pages